[[{"header":{"parameterUnit":"m.s-1","parameterCategory":1,"la1":30.2991,"la2":30.254,"lo1":-89.0895,"lo2":-89.0444,"dy":0.0017,"dx":0.0017,"nx":28,"ny":28,"refTime":"2024-06-05T03:00:00:Z","depth":0,"parameterNumber":2,"parameterNumberName":"U-component_of_WINDS"},"data":[0,0,0,0,0,0,0,0,0,0,0,0,0,0,0,0,0,0,0,0,0,0,0,0,0,0,0,0,0,0,0,0,0,0,0,0,0,0,0,0,0,0,0,0,0,0,0,0,0,0,0,0,0,0,0,0,0,0,2.9467,2.9467,0,2.953,2.9531,2.9531,2.9509,2.9508,2.9506,2.9505,2.9574,2.9577,2.958,0,0,0,0,0,0,0,0,0,0,0,0,0,2.9331,2.9334,2.9467,2.9467,2.9468,2.953,2.9531,2.9532,2.951,2.9508,2.9506,2.9504,2.9573,2.9577,2.9581,0,0,0,0,0,0,0,0,0,0,0,0,0,2.9392,2.9334,2.9466,2.9464,2.9465,2.953,2.9531,2.9532,2.951,2.9508,2.9506,2.9504,2.9572,2.9577,2.9581,2.9653,0,0,2.9596,2.9598,0,0,0,0,0,0,0,0,2.9388,2.9397,2.9464,2.9465,2.9465,2.9509,2.9508,2.9573,2.951,2.9493,2.9505,2.9503,2.9555,2.9561,2.9577,2.9656,2.9659,2.9596,2.9599,2.9601,2.9602,0,0,0,0,0,0,0,2.9384,2.9394,2.9492,2.9465,2.9466,2.9462,2.9468,2.952,2.9535,2.9494,2.9493,2.95,2.9555,2.9573,2.9579,2.966,2.9596,2.96,2.9603,2.9605,2.9803,2.9805,0,0,0,0,0,0,2.9379,2.9391,2.949,2.9494,2.9421,2.9466,2.9473,2.9498,2.9534,2.9538,2.9502,2.9499,2.9566,2.9573,2.9581,2.9668,2.9601,2.9605,2.9608,2.9801,2.9804,2.9806,0,0,0,0,0,0,2.9376,2.9388,2.9487,2.9442,2.9454,2.9471,2.9498,2.95,2.9518,2.954,2.9543,2.9518,2.9564,2.9575,2.9635,2.9671,2.9608,2.9612,2.9798,2.9802,2.9805,2.9843,0,0,0,0,0,0,2.9372,2.9387,2.9413,2.9442,2.9457,2.9539,2.95,2.9503,2.9526,2.9522,2.9556,2.9559,2.9564,2.9628,2.964,2.9676,2.9616,2.9795,2.9799,2.9804,2.9839,2.9848,2.9855,0,0,0,0,0,2.9368,2.9422,2.9415,2.9427,2.9489,2.9541,2.9549,2.9552,2.9529,2.9556,2.9571,2.9558,2.9665,2.9635,2.9648,2.9686,2.9792,2.9798,2.9803,2.9835,2.9846,2.9855,0,0,0,0,0,0,2.9398,2.9426,2.9418,2.9483,2.951,2.9537,2.9571,2.9563,2.9597,2.9593,2.9596,2.9604,2.9667,2.9682,2.9648,2.9758,2.9725,2.9734,2.9745,2.9756,2.9764,2.9759,2.962,0,0,0,0,0,2.9412,2.945,2.9473,2.9529,2.9542,2.9555,2.9577,2.9577,2.9605,2.9616,2.9635,2.9664,2.9705,2.9731,2.9769,2.9841,2.9849,2.9874,2.9882,2.9888,2.9896,2.9936,2.9948,2.9824,2.9824,2.9824,0,0,2.9442,2.9462,2.9486,2.9535,2.9556,2.9597,2.9564,2.9609,2.9639,2.9624,2.9682,2.9697,2.973,2.9797,2.9827,2.9812,2.9932,2.9895,2.99,2.9904,2.9943,2.9955,2.9965,2.9828,2.9827,2.9826,0,0,2.9517,2.9535,2.9584,2.9605,2.9636,2.9645,2.9656,2.9685,2.9694,2.9753,2.9742,2.978,2.9849,2.9873,2.9894,2.998,2.997,2.9992,3.0035,3.0074,3.0084,3.0093,3.0124,3.0135,2.9999,2.9999,2.9999,0,2.955,2.961,2.961,2.9656,2.9679,2.9665,2.9716,2.9737,2.978,2.9796,2.9778,2.9865,2.9886,2.9959,2.998,2.9997,3.0012,2.9988,3.0082,3.0091,3.0099,3.0129,3.0141,3.0002,3.0002,3.0001,3.0001,0,2.965,2.9692,2.9728,2.9768,2.9795,2.9843,2.9852,2.988,2.9878,2.9888,2.9949,2.9974,3.0017,3.0035,3.0033,3.0108,3.0098,3.0081,3.0048,3.0114,3.0142,3.0153,3.0005,3.0005,3.0004,3.0003,0,0,2.9745,2.9786,2.9799,2.9818,2.9852,2.9885,2.9933,2.9974,2.9998,3.0029,3.007,3.0129,3.0114,3.0138,3.014,3.0174,3.0242,3.0154,3.0155,3.017,3.0327,3.0339,3.0353,3.0236,3.0238,3.024,3.0325,0,2.9823,2.9906,2.9908,2.9985,3.0024,3.0013,3.0055,3.0082,3.0094,3.013,3.0144,3.0185,3.0162,3.0177,3.0211,3.0226,3.0274,3.022,3.0276,3.0278,3.0268,3.0367,3.038,3.0459,3.0336,3.0337,3.0339,0,2.9925,2.9958,3.0038,3.0067,3.0084,3.0121,3.016,3.0195,3.0225,3.0232,3.0259,3.0256,3.0307,3.0273,3.0344,3.0308,3.0331,3.0342,3.0345,3.0351,3.0312,3.0376,3.0484,3.0496,3.0356,3.0355,3.0354,0,2.9987,3.0051,3.0107,3.0124,3.016,3.0186,3.0203,3.0231,3.0256,3.0291,3.0308,3.0348,3.037,3.0403,3.0411,3.0385,3.0483,3.0449,3.0491,3.0491,3.0511,3.051,3.0625,3.0526,3.0526,3.0526,3.0525,0,3.0074,3.0123,3.0136,3.0171,3.0226,3.023,3.0286,3.0301,3.0326,3.0365,3.0358,3.0395,3.0404,3.0443,3.045,3.0509,3.0519,3.0526,3.0528,3.0527,3.0526,3.0542,3.0537,3.0529,3.0528,3.0527,3.0527,0,3.0152,3.0162,3.0223,3.0252,3.0261,3.0301,3.0326,3.0361,3.0372,3.0421,3.0433,3.0451,3.0496,3.0508,3.0563,3.0568,3.0637,3.0633,3.0626,3.0626,3.0667,3.0663,3.0797,3.0815,3.0704,3.0705,3.0706,0,3.0207,3.0245,3.0278,3.0303,3.032,3.036,3.0386,3.0392,3.0419,3.0457,3.0487,3.0532,3.0568,3.0642,3.0661,3.0703,3.0701,3.0745,3.0707,3.0705,3.0702,3.07,3.0704,3.0752,3.0753,3.0754,3.0755,0,3.0303,3.0307,3.0343,3.0382,3.0412,3.0443,3.0473,3.0494,3.0505,3.0536,3.0582,3.061,3.0666,3.0711,3.0754,3.0773,3.0766,3.0766,3.0778,3.0778,3.0772,3.0776,3.0646,3.0763,3.0762,3.0762,3.0761,3.0761,3.0372,3.0405,3.0434,3.0475,3.0498,3.0527,3.056,3.0576,3.0614,3.0659,3.0661,3.0711,3.0743,3.0799,3.0821,3.0861,3.0848,3.0865,3.087,3.0874,3.0877,3.0766,3.0869,3.0869,3.0869,3.0869,3.0868,0,3.0468,3.0486,3.0524,3.0566,3.0599,3.0589,3.0622,3.065,3.0694,3.0724,3.0759,3.0813,3.0857,3.088,3.0924,3.0952,3.095,3.0964,3.0962,3.0966,3.0886,3.0872,3.0964,3.0964,3.0964,3.0964,3.0964,3.0964,3.0522,3.0578,3.0586,3.0654,3.0672,3.0721,3.0741,3.0767,3.0791,3.0851,3.0887,3.0901,3.0928,3.0974,3.1015,3.1021,3.1037,3.1052,3.1057,3.0982,3.0972,3.0962,3.0949,3.1056,3.1056,3.1133,3.1134,3.1134]},{"header":{"parameterUnit":"m.s-1","parameterCategory":1,"la1":30.2991,"la2":30.254,"lo1":-89.0895,"lo2":-89.0444,"dy":0.0017,"dx":0.0017,"nx":28,"ny":28,"refTime":"2024-06-05T03:00:00:Z","depth":0,"parameterNumber":3,"parameterNumberName":"V-component_of_WINDS"},"data":[0,0,0,0,0,0,0,0,0,0,0,0,0,0,0,0,0,0,0,0,0,0,0,0,0,0,0,0,0,0,0,0,0,0,0,0,0,0,0,0,0,0,0,0,0,0,0,0,0,0,0,0,0,0,0,0,0,0,2.4126,2.4127,0,2.4209,2.421,2.4211,2.423,2.423,2.4229,2.4229,2.4311,2.4314,2.4316,0,0,0,0,0,0,0,0,0,0,0,0,0,2.398,2.3982,2.4126,2.4127,2.4128,2.4209,2.421,2.4211,2.423,2.423,2.4229,2.4228,2.431,2.4313,2.4316,0,0,0,0,0,0,0,0,0,0,0,0,0,2.4051,2.3983,2.4126,2.4148,2.415,2.4209,2.421,2.4211,2.4231,2.423,2.4229,2.4228,2.4309,2.4313,2.4317,2.4359,0,0,2.4329,2.4331,0,0,0,0,0,0,0,0,2.4047,2.4056,2.4143,2.4146,2.4149,2.4209,2.4189,2.4261,2.4231,2.42,2.4229,2.4228,2.4277,2.4284,2.4301,2.4363,2.4366,2.433,2.4332,2.4334,2.4335,0,0,0,0,0,0,0,2.4042,2.4053,2.4159,2.4145,2.4148,2.4152,2.4161,2.4202,2.4242,2.4203,2.4204,2.4214,2.4279,2.4297,2.4303,2.4367,2.433,2.4333,2.4336,2.4337,2.4463,2.4464,0,0,0,0,0,0,2.4034,2.4049,2.4156,2.4161,2.4095,2.4155,2.4165,2.419,2.4242,2.4249,2.4215,2.4215,2.4291,2.4299,2.4306,2.4356,2.4334,2.4338,2.434,2.4462,2.4463,2.4464,0,0,0,0,0,0,2.403,2.4043,2.4153,2.4105,2.412,2.4158,2.4186,2.4192,2.4211,2.4251,2.4258,2.4226,2.429,2.4301,2.4345,2.436,2.4339,2.4343,2.4461,2.4463,2.4464,2.4458,0,0,0,0,0,0,2.4026,2.4042,2.406,2.4106,2.4122,2.4192,2.4187,2.4195,2.4218,2.4219,2.4264,2.427,2.4291,2.4339,2.4349,2.4365,2.4346,2.446,2.4462,2.4463,2.4457,2.4459,2.4461,0,0,0,0,0,2.4021,2.4055,2.406,2.4073,2.4145,2.4192,2.4202,2.4225,2.4219,2.4236,2.4261,2.4269,2.4356,2.4343,2.4355,2.4372,2.4459,2.4461,2.4463,2.4456,2.4459,2.4461,0,0,0,0,0,0,2.4009,2.4061,2.4068,2.4118,2.4151,2.4196,2.4218,2.4227,2.4261,2.4261,2.4287,2.4297,2.4339,2.436,2.4344,2.4413,2.4407,2.4412,2.4398,2.4401,2.4403,2.4396,2.435,0,0,0,0,0,2.4012,2.4048,2.4091,2.4131,2.4147,2.4179,2.4201,2.4216,2.425,2.4264,2.4292,2.4325,2.4359,2.4381,2.4415,2.446,2.4469,2.4477,2.4479,2.4481,2.4484,2.4506,2.451,2.4471,2.4471,2.4471,0,0,2.402,2.4052,2.4073,2.4129,2.4156,2.419,2.4191,2.4228,2.4253,2.4269,2.4313,2.4334,2.4371,2.4416,2.4436,2.4435,2.4496,2.4483,2.4484,2.4487,2.4509,2.4512,2.4516,2.4472,2.4472,2.4472,0,0,2.405,2.4079,2.4114,2.4141,2.4181,2.4202,2.4211,2.4254,2.4269,2.4313,2.4325,2.4354,2.4414,2.4439,2.446,2.4496,2.4503,2.4506,2.4515,2.4537,2.454,2.4543,2.4553,2.4557,2.4509,2.4509,2.4509,0,2.4053,2.4106,2.4131,2.4166,2.4189,2.4206,2.424,2.4265,2.4314,2.4329,2.4326,2.4399,2.4425,2.4474,2.4482,2.4499,2.4508,2.4501,2.4538,2.4541,2.4544,2.4554,2.4558,2.4509,2.4509,2.4509,2.4509,0,2.4107,2.4144,2.4167,2.4214,2.424,2.4275,2.4302,2.4325,2.4337,2.4357,2.44,2.4432,2.4471,2.4484,2.4496,2.4534,2.4531,2.4533,2.4527,2.4547,2.4557,2.4562,2.4509,2.4509,2.4509,2.4509,0,0,2.4133,2.4192,2.42,2.422,2.4265,2.4293,2.4327,2.4366,2.4384,2.4417,2.4444,2.4493,2.4494,2.4517,2.4532,2.4551,2.4574,2.455,2.4551,2.4552,2.4615,2.4613,2.4617,2.4579,2.458,2.4581,2.4611,0,2.4168,2.4231,2.4252,2.4303,2.4336,2.435,2.438,2.4409,2.4429,2.4457,2.4478,2.4512,2.4511,2.4525,2.4545,2.4567,2.4587,2.4566,2.4604,2.4605,2.4593,2.4623,2.4622,2.4649,2.4615,2.4616,2.4617,0,2.4216,2.4249,2.4304,2.4342,2.4357,2.4383,2.4419,2.4447,2.4479,2.4492,2.4516,2.4529,2.4563,2.4555,2.4601,2.4586,2.4602,2.4615,2.4617,2.4621,2.4612,2.4626,2.4658,2.4661,2.4624,2.4623,2.4623,0,2.4227,2.4286,2.4325,2.4342,2.4389,2.4406,2.4426,2.4458,2.4479,2.451,2.4523,2.4557,2.4576,2.4601,2.4621,2.4614,2.4664,2.4659,2.4674,2.4673,2.4684,2.4683,2.4717,2.4696,2.4696,2.4696,2.4696,0,2.4263,2.4295,2.433,2.4355,2.439,2.4414,2.4448,2.4468,2.4496,2.4522,2.4537,2.4561,2.4588,2.4615,2.4631,2.4665,2.4674,2.4683,2.4687,2.4682,2.468,2.4692,2.4691,2.4697,2.4697,2.4696,2.4696,0,2.4281,2.4307,2.435,2.439,2.44,2.4424,2.4458,2.448,2.45,2.4533,2.4542,2.4572,2.4605,2.4628,2.467,2.468,2.4716,2.4721,2.4706,2.4707,2.472,2.4718,2.4763,2.477,2.4745,2.4745,2.4745,0,2.4302,2.4327,2.4369,2.4388,2.4408,2.4439,2.446,2.4483,2.4504,2.4542,2.4559,2.4593,2.4621,2.4672,2.4696,2.4728,2.4732,2.4746,2.4737,2.473,2.473,2.4728,2.473,2.4747,2.4747,2.4747,2.4747,0,2.4334,2.4345,2.4376,2.441,2.4435,2.4464,2.4492,2.4506,2.4534,2.4556,2.459,2.4612,2.4654,2.4686,2.472,2.4738,2.4746,2.475,2.4754,2.4749,2.4739,2.4743,2.4708,2.4748,2.4748,2.4748,2.4748,2.4748,2.4353,2.4375,2.4408,2.4441,2.4464,2.449,2.4512,2.4534,2.4563,2.46,2.4611,2.4645,2.4674,2.472,2.4739,2.4764,2.4764,2.4771,2.4773,2.4774,2.4773,2.4735,2.4771,2.4771,2.4771,2.4771,2.4771,0,2.4385,2.4407,2.4437,2.4475,2.4501,2.4507,2.4538,2.4558,2.4588,2.4615,2.4642,2.4679,2.471,2.4736,2.4768,2.4783,2.4787,2.479,2.4789,2.4793,2.4773,2.4765,2.4786,2.4786,2.4786,2.4786,2.4786,2.4786,2.4405,2.4442,2.4456,2.4503,2.4524,2.4558,2.4575,2.4597,2.4619,2.466,2.4686,2.4703,2.4729,2.4762,2.479,2.4796,2.4806,2.4808,2.4816,2.4796,2.4794,2.4793,2.4785,2.4811,2.4811,2.4833,2.4834,2.4834]}]]